"Pseudo-MPEC" for P11Or3B

Created 2023 Nov 30 8:22:04 UT using Find_Orb

Click here for an explanation of pseudo-MPECs

 
 Astrometry: 
     P11Or3B* C2023 11 19C%N?'1yku@v0sldA)2q!GAE?;pF3BilJbsAstrometry5ad0[`fkF51
     P11Or3B  C2023 11 193X03T9yK;m:@b0@O,dAVnkBXredacted;U#rAo+y%rSK%3LLMFh7F51
     P11Or3B  C2023 11 19@=C*^S1RxSdSV6tclick%uhereN*m[#forr`6xfxTexplanationF51

Station data:
(F51) Pan-STARRS 1, Haleakala  (N20.707234 W156.255910)  US/Hawaii.
   Observers J. Bulger, T. Lowe, A. Schultz, M. Willman. Measurers K.
   Chambers, S. Chastel, T. de Boer, L. Denneau, J. Fairlamb, H. Flewelling,
   M. Huber, C.-C. Lin, E. Magnier, Y. Ramanjooloo, R. Wainscoat, R. Weryk.
   1.8-m Ritchey-Chrétien + CCD.

Orbital elements:  P11Or3B
   Perihelion 2023 Sep 24.72799 +/- 50.9 TT = 17:28:18 (JD 2460212.22799)
Epoch 2023 Nov 19.0 TT = JDT 2460267.5   Earth MOID: 0.3494   Ju: 0.6007
M   9.91028872 +/- 15               Ma: 0.0610                   AutoNEOCP
n   0.17930030 +/- 0.204            Peri.  336.74231 +/- 70
a   3.11469385 +/- 2.36             Node    38.90643 +/- 45
e   0.5696291 +/- 0.24              Incl.    9.51502 +/- 5.7
P   5.50                   H 22.09  G  0.15   U 11.7  SR
q 1.34047340 +/- 0.448    Q 4.88891431 +/- 82.4           (J2000 ecliptic)
From 3 observations 2023 Nov. 19 (50.9 min); mean residual 0".06
Residuals in arcseconds: 
231119 F51  .03+  .01-    231119 F51  .11-  .05+    231119 F51  .08+  .04-    

Ephemerides (geocentric):
Date (UTC) HH   RA             Dec           delta  r     elong  mag " sig PA
---- --------  ------------   ------------  ------ ------ -----  --- --------
2023 11 30 08  03 27 00.880   +30 21 46.23  .55335 1.5270 164.7 22.4  38d 104
2023 11 30 09  03 26 59.847   +30 22 07.28  .55363 1.5272 164.7 22.4  38d 104
2023 11 30 10  03 26 58.818   +30 22 28.30  .55391 1.5274 164.6 22.4  38d 104
2023 11 30 11  03 26 57.791   +30 22 49.27  .55419 1.5276 164.6 22.4  38d 104
2023 11 30 12  03 26 56.768   +30 23 10.19  .55447 1.5279 164.6 22.4  38d 104
2023 11 30 13  03 26 55.749   +30 23 31.08  .55475 1.5281 164.5 22.4  38d 104
2023 11 30 14  03 26 54.733   +30 23 51.92  .55503 1.5283 164.5 22.4  38d 104
2023 11 30 15  03 26 53.720   +30 24 12.73  .55531 1.5285 164.4 22.4  38d 104
2023 11 30 16  03 26 52.711   +30 24 33.49  .55559 1.5287 164.4 22.4  38d 104
2023 11 30 17  03 26 51.705   +30 24 54.21  .55587 1.5289 164.4 22.4  38d 104
2023 11 30 18  03 26 50.702   +30 25 14.89  .55615 1.5291 164.3 22.4  38d 104
2023 11 30 19  03 26 49.703   +30 25 35.52  .55644 1.5293 164.3 22.4  38d 104
2023 11 30 20  03 26 48.707   +30 25 56.12  .55672 1.5295 164.3 22.4  38d 104
2023 11 30 21  03 26 47.715   +30 26 16.67  .55700 1.5298 164.2 22.4  38d 104
2023 11 30 22  03 26 46.726   +30 26 37.19  .55728 1.5300 164.2 22.4  39d 110
2023 11 30 23  03 26 45.740   +30 26 57.66  .55757 1.5302 164.2 22.4  39d 110
2023 12 01 00  03 26 44.758   +30 27 18.09  .55785 1.5304 164.1 22.4  39d 110
2023 12 01 01  03 26 43.780   +30 27 38.48  .55813 1.5306 164.1 22.4  39d 110
2023 12 01 02  03 26 42.805   +30 27 58.83  .55842 1.5308 164.1 22.4  39d 110
2023 12 01 03  03 26 41.833   +30 28 19.14  .55870 1.5310 164.0 22.4  39d 110
2023 12 01 04  03 26 40.865   +30 28 39.41  .55899 1.5312 164.0 22.4  39d 110
2023 12 01 05  03 26 39.900   +30 28 59.63  .55927 1.5315 164.0 22.4  39d 110
2023 12 01 06  03 26 38.938   +30 29 19.82  .55956 1.5317 163.9 22.4  39d 110
2023 12 01 07  03 26 37.981   +30 29 39.96  .55984 1.5319 163.9 22.4  39d 110
2023 12 01 08  03 26 37.026   +30 30 00.07  .56013 1.5321 163.8 22.4  39d 110
2023 12 01 09  03 26 36.075   +30 30 20.13  .56041 1.5323 163.8 22.4  39d 110
2023 12 01 10  03 26 35.128   +30 30 40.16  .56070 1.5325 163.8 22.4  39d 110
2023 12 01 11  03 26 34.184   +30 31 00.14  .56099 1.5327 163.7 22.4  39d 110
2023 12 01 12  03 26 33.243   +30 31 20.08  .56127 1.5329 163.7 22.4  39d 110
2023 12 01 13  03 26 32.306   +30 31 39.98  .56156 1.5332 163.7 22.4  39d 110
2023 12 01 14  03 26 31.373   +30 31 59.85  .56185 1.5334 163.6 22.4  39d 110
2023 12 01 15  03 26 30.443   +30 32 19.67  .56214 1.5336 163.6 22.4  39d 110
2023 12 01 16  03 26 29.516   +30 32 39.45  .56243 1.5338 163.6 22.4  39d 110
2023 12 01 17  03 26 28.593   +30 32 59.19  .56271 1.5340 163.5 22.4  39d 110
2023 12 01 18  03 26 27.674   +30 33 18.89  .56300 1.5342 163.5 22.4  39d 110
2023 12 01 19  03 26 26.758   +30 33 38.55  .56329 1.5344 163.5 22.4  39d 110
2023 12 01 20  03 26 25.846   +30 33 58.17  .56358 1.5346 163.4 22.4  39d 110
2023 12 01 21  03 26 24.937   +30 34 17.76  .56387 1.5349 163.4 22.4  39d 110
2023 12 01 22  03 26 24.032   +30 34 37.30  .56416 1.5351 163.3 22.5  39d 110
2023 12 01 23  03 26 23.130   +30 34 56.80  .56445 1.5353 163.3 22.5  39d 110
2023 12 02 00  03 26 22.232   +30 35 16.26  .56474 1.5355 163.3 22.5  39d 110
2023 12 02 01  03 26 21.337   +30 35 35.68  .56503 1.5357 163.2 22.5  39d 110
2023 12 02 02  03 26 20.446   +30 35 55.07  .56532 1.5359 163.2 22.5  39d 110
2023 12 02 03  03 26 19.558   +30 36 14.41  .56562 1.5361 163.2 22.5  39d 110
2023 12 02 04  03 26 18.674   +30 36 33.71  .56591 1.5364 163.1 22.5  39d 110
2023 12 02 05  03 26 17.794   +30 36 52.98  .56620 1.5366 163.1 22.5  39d 110
2023 12 02 06  03 26 16.917   +30 37 12.20  .56649 1.5368 163.1 22.5  39d 110
2023 12 02 07  03 26 16.044   +30 37 31.39  .56678 1.5370 163.0 22.5  39d 110